Terminal Aerodrome Forecast
Issued by NWS Quad Cities IA IL

Current Version | Previous Version | Text Only | Print | Product List | Glossary On
Versions: 1 2 3 4 5 6 7 8 9 10 11 12 13 14 15 16 17 18 19
000
FTUS43 KDVN 212048 AAA
TAFDBQ
TAF AMD
KDBQ 212048Z 2121/2218 17017G23KT P6SM BKN045
     FM220300 17015G23KT P6SM VCSH OVC040
      TEMPO 2203/2207 3SM TSRA OVC015CB
     FM220700 28010KT 4SM -SHRA OVC015
     FM221700 33013KT P6SM OVC035=

USA.gov is the U.S. government's official web portal to all federal, state and local government web resources and services.